Home   Weather   Sonneberg   Past weeks

Flag for Germany Past Weather in Sonneberg, Thuringia, Germany — Yesterday and Last 2 Weeks

Now
16 °F

Ice fog.


Feels Like: 7 °F
Forecast: 10 / 23 °F
Wind: 6 mph from North

Location: Hof Airport

Current Time: Jan 18, 2017 at 11:16:45 am

Latest Report: Jan 18, 2017 at 10:50 am


Visibility: 1 mi

Pressure: 30.60 "Hg

Humidity: 86%

Dew Point: 12 °F

Location of SonnebergLocation

Past Weather in Sonneberg — Graph

°F

Sonneberg Temperature Yesterday

Maximum temperature yesterday: 23 °F (at 9:20 am)
Minimum temperature yesterday: 21 °F (at 7:20 am)
Average temperature yesterday: 22 °F

High & Low Weather Summary for the Past Weeks

 TemperatureHumidityPressure
High34 °F (Jan 12, 10:50 am)93% (Jan 3, 12:20 pm)30.63 "Hg (Jan 3, 12:20 pm)
Low7 °F (Jan 6, 5:20 pm)67% (Jan 7, 10:50 am)29.12 "Hg (Jan 13, 7:20 am)
Average25 °F85%30.02 "Hg
* Reported Jan 3 9:20 am — Jan 18 9:50 am, Sonneberg, Weather by CustomWeather, © 2017

Note: Actual official high and low records may vary slightly from our data, if they occured in-between our weather recording intervals... More about our weather records

Advertising

Sonneberg Weather History for the Previous 24 Hours

Scroll right to see more
 ConditionsComfort  
Time TempWeatherWind HumidityBarometerVisibility
9:50 am
Wed, Jan 18
16 °FIce fog.6 mph86%30.60 "Hg1 mi
9:20 am16 °FIce fog.6 mph86%30.60 "Hg1 mi
8:50 am14 °FIce fog.6 mph92%30.57 "Hg1 mi
8:20 am16 °FIce fog.5 mph93%30.57 "Hg3 mi
7:50 am18 °FIce fog.5 mph86%30.57 "Hg2 mi
7:20 am18 °FIce fog.6 mph86%30.57 "Hg2 mi
7:50 pm
Tue, Jan 17
21 °FLight snow. Mostly cloudy.12 mph93%30.54 "Hg3 mi
7:20 pm21 °FLight snow. Mostly cloudy.10 mph93%30.51 "Hg2 mi
6:20 pm21 °FLight snow. Overcast.10 mph86%30.51 "Hg2 mi
5:50 pm21 °FLight snow. Mostly cloudy.12 mph86%30.51 "Hg4 mi
5:20 pm21 °FLight snow. Low clouds.10 mph86%30.51 "Hg3 mi
4:20 pm21 °FScattered clouds.10 mph86%30.48 "HgN/A
3:50 pm23 °FPassing clouds.8 mph80%30.48 "HgN/A
3:20 pm23 °FLight snow. Partly sunny.10 mph80%30.48 "HgN/A
2:50 pm23 °FLight snow. Partly sunny.12 mph80%30.48 "HgN/A
2:20 pm23 °FLight snow. Broken clouds.12 mph86%30.45 "HgN/A
1:50 pm23 °FLight snow. Ice fog.13 mph86%30.45 "Hg3 mi
1:20 pm23 °FLight snow. Cloudy.13 mph86%30.48 "Hg5 mi
12:20 pm23 °FBroken clouds.12 mph86%30.45 "HgN/A
11:50 am23 °FSnow flurries. Mostly cloudy.13 mph86%30.45 "HgN/A
11:20 am23 °FLow clouds.12 mph86%30.45 "HgN/A
Weather by CustomWeather, © 2017

See weather overviewHow to use our weather pages